timestamp,wind_dir_avg,wind_spd_max_dir,wind_spd_avg,wind_spd_gust,battery_voltage,lat,long
2018-04-09 01:20:00+00:00,95.0,76.0,7.3,9.43,,47.59359,-54.27349
2018-04-09 01:30:00+00:00,89.0,86.0,7.39,10.06,,47.59359,-54.27349
2018-04-09 01:40:00+00:00,85.0,81.0,6.98,9.27,,47.59359,-54.27349
2018-04-09 01:50:00+00:00,84.0,72.0,6.13,8.33,,47.59359,-54.27349
2018-04-09 02:00:00+00:00,91.0,86.0,7.6,9.89,,47.59359,-54.27349
2018-04-09 02:10:00+00:00,88.0,79.0,8.72,12.5,,47.59359,-54.27349
2018-04-09 02:20:00+00:00,86.0,92.0,8.91,10.61,,47.59359,-54.27349
2018-04-09 02:30:00+00:00,84.0,80.0,7.93,10.63,,47.59359,-54.27349
2018-04-09 02:40:00+00:00,90.0,96.0,6.97,12.88,,47.59359,-54.27349
2018-04-09 02:50:00+00:00,96.0,113.0,5.71,8.88,,47.59359,-54.27349
2018-04-09 03:00:00+00:00,93.0,82.0,5.16,8.18,,47.59359,-54.27349
2018-04-09 03:10:00+00:00,85.0,85.0,8.87,11.16,,47.59359,-54.27349
2018-04-09 03:20:00+00:00,77.0,74.0,8.53,9.88,,47.59359,-54.27349
2018-04-09 03:30:00+00:00,72.0,79.0,6.68,8.05,,47.59359,-54.27349
2018-04-09 03:40:00+00:00,79.0,77.0,7.48,8.55,,47.59359,-54.27349
2018-04-09 03:50:00+00:00,61.0,60.0,7.44,8.35,,47.59359,-54.27349
2018-04-09 04:00:00+00:00,51.0,54.0,8.79,9.9,,47.59359,-54.27349
2018-04-09 04:10:00+00:00,56.0,60.0,9.89,11.47,,47.59359,-54.27349
2018-04-09 04:20:00+00:00,65.0,71.0,5.86,7.79,,47.59359,-54.27349
2018-04-09 04:30:00+00:00,44.0,52.0,4.68,6.76,,47.59359,-54.27349
2018-04-09 04:40:00+00:00,110.0,138.0,3.12,5.62,,47.59359,-54.27349
2018-04-09 04:50:00+00:00,3.0,5.0,7.61,9.96,,47.59359,-54.27349
2018-04-09 05:00:00+00:00,13.0,19.0,8.03,10.86,,47.59359,-54.27349
2018-04-09 05:10:00+00:00,17.0,22.0,7.79,8.63,,47.59359,-54.27349
2018-04-09 05:20:00+00:00,228.0,232.0,10.82,16.01,,47.59359,-54.27349
2018-04-09 05:30:00+00:00,254.0,246.0,4.81,12.97,,47.59359,-54.27349
2018-04-09 05:40:00+00:00,213.0,216.0,22.48,26.88,,47.59359,-54.27349
2018-04-09 05:50:00+00:00,209.0,208.0,23.73,27.29,,47.59359,-54.27349
2018-04-09 06:00:00+00:00,207.0,212.0,20.6,25.74,,47.59359,-54.27349
2018-04-09 06:10:00+00:00,207.0,208.0,21.19,23.89,,47.59359,-54.27349
2018-04-09 06:20:00+00:00,207.0,214.0,23.35,27.74,,47.59359,-54.27349
2018-04-09 06:30:00+00:00,206.0,211.0,22.81,28.04,,47.59359,-54.27349
2018-04-09 06:40:00+00:00,204.0,206.0,24.35,29.11,,47.59359,-54.27349
2018-04-09 06:50:00+00:00,201.0,211.0,22.45,26.45,,47.59359,-54.27349
2018-04-09 07:00:00+00:00,195.0,185.0,22.86,29.6,,47.59359,-54.27349
2018-04-09 07:10:00+00:00,199.0,186.0,23.07,28.36,,47.59359,-54.27349
2018-04-09 07:20:00+00:00,200.0,201.0,25.41,30.19,,47.59359,-54.27349
2018-04-09 07:30:00+00:00,206.0,213.0,25.75,32.65,,47.59359,-54.27349
2018-04-09 07:40:00+00:00,209.0,204.0,24.78,30.78,,47.59359,-54.27349
2018-04-09 07:50:00+00:00,205.0,199.0,27.58,33.86,,47.59359,-54.27349
2018-04-09 08:00:00+00:00,205.0,200.0,23.63,29.37,,47.59359,-54.27349
2018-04-09 08:10:00+00:00,206.0,212.0,21.18,27.01,,47.59359,-54.27349
2018-04-09 08:20:00+00:00,205.0,209.0,22.4,25.83,,47.59359,-54.27349
2018-04-09 08:30:00+00:00,205.0,202.0,22.92,27.16,,47.59359,-54.27349
2018-04-09 08:40:00+00:00,206.0,213.0,21.98,25.68,,47.59359,-54.27349
2018-04-09 08:50:00+00:00,204.0,204.0,21.7,27.0,,47.59359,-54.27349
2018-04-09 09:00:00+00:00,206.0,207.0,21.28,25.41,,47.59359,-54.27349
2018-04-09 09:10:00+00:00,211.0,217.0,23.22,26.95,,47.59359,-54.27349
2018-04-09 09:20:00+00:00,210.0,216.0,22.95,26.46,,47.59359,-54.27349
2018-04-09 09:30:00+00:00,211.0,209.0,22.76,27.29,,47.59359,-54.27349
2018-04-09 09:40:00+00:00,208.0,206.0,22.02,26.67,,47.59359,-54.27349
2018-04-09 09:50:00+00:00,213.0,206.0,20.31,27.43,,47.59359,-54.27349
2018-04-09 10:00:00+00:00,215.0,214.0,24.63,28.43,,47.59359,-54.27349
2018-04-09 10:10:00+00:00,215.0,214.0,24.69,28.54,,47.59359,-54.27349
2018-04-09 10:20:00+00:00,219.0,222.0,22.17,26.94,,47.59359,-54.27349
2018-04-09 10:30:00+00:00,219.0,227.0,23.24,27.49,,47.59359,-54.27349
2018-04-09 10:40:00+00:00,221.0,228.0,20.97,25.94,,47.59359,-54.27349
2018-04-09 10:50:00+00:00,227.0,229.0,21.48,24.29,,47.59359,-54.27349
2018-04-09 11:00:00+00:00,230.0,231.0,22.58,27.02,,47.59359,-54.27349
2018-04-09 11:10:00+00:00,231.0,232.0,21.13,24.07,,47.59359,-54.27349
2018-04-09 11:20:00+00:00,230.0,231.0,20.05,23.88,,47.59359,-54.27349
2018-04-09 11:30:00+00:00,232.0,238.0,18.67,22.26,,47.59359,-54.27349
2018-04-09 11:40:00+00:00,232.0,217.0,18.69,21.27,,47.59359,-54.27349
2018-04-09 11:50:00+00:00,229.0,228.0,20.35,23.35,,47.59359,-54.27349
2018-04-09 12:00:00+00:00,232.0,236.0,20.03,24.89,,47.59359,-54.27349
2018-04-09 12:10:00+00:00,235.0,239.0,19.34,23.45,,47.59359,-54.27349
2018-04-09 12:20:00+00:00,232.0,237.0,15.49,19.38,,47.59359,-54.27349
2018-04-09 12:30:00+00:00,234.0,226.0,18.72,22.49,,47.59359,-54.27349
2018-04-09 12:40:00+00:00,238.0,246.0,16.32,18.84,,47.59359,-54.27349
2018-04-09 12:50:00+00:00,243.0,243.0,17.29,23.28,,47.59359,-54.27349
2018-04-09 13:00:00+00:00,242.0,237.0,16.43,20.79,,47.59359,-54.27349
2018-04-09 13:10:00+00:00,241.0,250.0,20.64,27.85,,47.59359,-54.27349
2018-04-09 13:20:00+00:00,244.0,252.0,19.01,22.6,,47.59359,-54.27349
2018-04-09 13:30:00+00:00,239.0,235.0,21.58,26.71,,47.59359,-54.27349
2018-04-09 13:40:00+00:00,237.0,232.0,22.11,27.7,,47.59359,-54.27349
2018-04-09 13:50:00+00:00,242.0,243.0,20.29,25.89,,47.59359,-54.27349
2018-04-09 14:00:00+00:00,243.0,241.0,24.73,30.48,,47.59359,-54.27349
2018-04-09 14:10:00+00:00,245.0,243.0,18.69,24.0,,47.59359,-54.27349
2018-04-09 14:20:00+00:00,257.0,263.0,24.14,28.83,,47.59359,-54.27349
2018-04-09 14:30:00+00:00,252.0,251.0,23.4,28.05,,47.59359,-54.27349
2018-04-09 14:40:00+00:00,250.0,250.0,22.49,30.99,,47.59359,-54.27349
2018-04-09 14:50:00+00:00,253.0,259.0,24.25,30.71,,47.59359,-54.27349
2018-04-09 15:00:00+00:00,249.0,248.0,26.97,32.15,,47.59359,-54.27349
2018-04-09 15:10:00+00:00,258.0,260.0,22.98,27.44,,47.59359,-54.27349
2018-04-09 15:20:00+00:00,255.0,255.0,25.64,30.8,,47.59359,-54.27349
2018-04-09 15:30:00+00:00,257.0,252.0,27.72,33.57,,47.59359,-54.27349
2018-04-09 15:40:00+00:00,257.0,256.0,22.43,28.67,,47.59359,-54.27349
2018-04-09 15:50:00+00:00,257.0,259.0,26.15,30.29,,47.59359,-54.27349
2018-04-09 16:00:00+00:00,257.0,261.0,26.03,30.41,,47.59359,-54.27349
2018-04-09 16:10:00+00:00,260.0,257.0,23.53,27.94,,47.59359,-54.27349
2018-04-09 16:20:00+00:00,258.0,253.0,28.11,32.86,,47.59359,-54.27349
2018-04-09 16:30:00+00:00,263.0,265.0,26.4,31.36,,47.59359,-54.27349
2018-04-09 16:40:00+00:00,261.0,266.0,23.35,26.7,,47.59359,-54.27349
2018-04-09 16:50:00+00:00,271.0,266.0,26.61,31.49,,47.59359,-54.27349
2018-04-09 17:00:00+00:00,272.0,276.0,25.08,29.92,,47.59359,-54.27349
2018-04-09 17:10:00+00:00,270.0,265.0,25.96,31.61,,47.59359,-54.27349
2018-04-09 17:20:00+00:00,266.0,264.0,23.6,27.75,,47.59359,-54.27349
2018-04-09 17:30:00+00:00,271.0,270.0,23.78,29.35,,47.59359,-54.27349
2018-04-09 17:40:00+00:00,265.0,266.0,24.0,33.74,,47.59359,-54.27349
2018-04-09 17:50:00+00:00,273.0,270.0,26.72,30.83,,47.59359,-54.27349
2018-04-09 18:00:00+00:00,275.0,283.0,21.86,26.74,,47.59359,-54.27349
2018-04-09 18:10:00+00:00,266.0,261.0,22.7,29.9,,47.59359,-54.27349
2018-04-09 18:20:00+00:00,263.0,261.0,21.88,25.4,,47.59359,-54.27349
2018-04-09 18:30:00+00:00,269.0,270.0,23.59,29.63,,47.59359,-54.27349
2018-04-09 18:40:00+00:00,271.0,279.0,20.45,24.67,,47.59359,-54.27349
2018-04-09 18:50:00+00:00,268.0,260.0,24.57,28.39,,47.59359,-54.27349
2018-04-09 19:00:00+00:00,267.0,263.0,24.86,29.83,,47.59359,-54.27349
2018-04-09 19:10:00+00:00,265.0,267.0,21.42,25.0,,47.59359,-54.27349
2018-04-09 19:20:00+00:00,267.0,261.0,24.27,28.69,,47.59359,-54.27349
2018-04-09 19:30:00+00:00,267.0,265.0,22.32,25.36,,47.59359,-54.27349
2018-04-09 19:40:00+00:00,268.0,253.0,19.93,25.54,,47.59359,-54.27349
2018-04-09 19:50:00+00:00,275.0,279.0,20.62,26.3,,47.59359,-54.27349
2018-04-09 20:00:00+00:00,272.0,269.0,22.22,27.17,,47.59359,-54.27349
2018-04-09 20:10:00+00:00,271.0,269.0,22.01,25.07,,47.59359,-54.27349
2018-04-09 20:20:00+00:00,262.0,262.0,21.23,25.93,,47.59359,-54.27349
2018-04-09 20:30:00+00:00,269.0,270.0,25.97,29.74,,47.59359,-54.27349
2018-04-09 20:40:00+00:00,269.0,274.0,19.49,24.18,,47.59359,-54.27349
2018-04-09 20:50:00+00:00,272.0,272.0,23.53,26.08,,47.59359,-54.27349
2018-04-09 21:00:00+00:00,268.0,258.0,20.99,26.54,,47.59359,-54.27349
2018-04-09 21:10:00+00:00,267.0,269.0,17.97,23.33,,47.59359,-54.27349
2018-04-09 21:20:00+00:00,269.0,258.0,21.06,24.5,,47.59359,-54.27349
2018-04-09 21:30:00+00:00,267.0,270.0,15.12,17.83,,47.59359,-54.27349
2018-04-09 21:40:00+00:00,271.0,271.0,19.18,23.63,,47.59359,-54.27349
2018-04-09 21:50:00+00:00,269.0,270.0,18.03,23.65,,47.59359,-54.27349
2018-04-09 22:00:00+00:00,263.0,267.0,21.22,24.99,,47.59359,-54.27349
2018-04-09 22:10:00+00:00,269.0,265.0,19.92,23.36,,47.59359,-54.27349
2018-04-09 22:20:00+00:00,266.0,272.0,17.05,20.25,,47.59359,-54.27349
2018-04-09 22:30:00+00:00,269.0,269.0,19.35,23.32,,47.59359,-54.27349
2018-04-09 22:40:00+00:00,268.0,270.0,15.49,19.54,,47.59359,-54.27349
2018-04-09 22:50:00+00:00,264.0,265.0,18.35,21.4,,47.59359,-54.27349
2018-04-09 23:00:00+00:00,265.0,267.0,17.35,20.81,,47.59359,-54.27349
2018-04-09 23:10:00+00:00,266.0,274.0,18.17,22.39,,47.59359,-54.27349
2018-04-09 23:20:00+00:00,265.0,269.0,17.49,20.58,,47.59359,-54.27349
2018-04-09 23:30:00+00:00,266.0,274.0,15.27,18.88,,47.59359,-54.27349
2018-04-09 23:40:00+00:00,264.0,261.0,17.62,21.34,,47.59359,-54.27349
2018-04-09 23:50:00+00:00,266.0,266.0,17.12,20.67,,47.59359,-54.27349
